GFSMA_sfc_30mbdewp_225.txt.gz
Dewpoint
65 64 64 64 64 64 63 62 61 61 60 61 60 59 57 54 56 57 56 56 57 61 65 65 67 69 68 68 67 67 66 65 65 65 64 64 64 64 63 63 61 61 61
64 64 64 64 64 64 64 63 62 62 62 62 62 62 60 60 61 60 59 58 58 58 59 62 64 65 66 66 66 66 66 66 65 65 65 65 64 64 63 63 62 61 61
64 65 65 64 64 64 64 63 63 63 64 64 64 63 62 62 62 62 62 62 62 61 61 61 61 62 63 63 64 64 64 64 65 65 64 64 64 64 63 63 62 59 60
65 65 65 65 65 65 64 64 64 63 63 63 62 62 62 61 61 61 61 60 60 60 60 60 60 60 61 62 62 62 63 63 63 64 64 64 63 63 64 63 62 60 60
66 65 66 66 65 65 65 64 63 63 62 61 61 61 60 59 58 58 57 57 58 58 58 58 58 58 59 60 61 61 61 61 62 62 62 61 61 62 62 62 62 61 60
66 66 66 65 65 65 64 64 63 62 61 61 60 59 57 55 54 54 54 55 56 57 56 55 55 56 56 57 57 58 58 58 56 58 56 58 60 60 60 60 60 61 60
66 66 66 65 65 64 64 63 62 61 59 52 49 46 43 42 43 44 49 53 49 48 48 50 48 50 51 53 54 54 54 54 55 55 57 57 58 58 58 59 59 59 60
67 66 65 65 64 64 63 62 59 54 50 46 44 40 31 32 38 40 39 37 38 41 41 41 44 45 47 50 51 52 52 51 50 53 54 56 56 57 57 58 57 56 57
67 66 65 65 64 62 61 58 54 51 47 44 44 36 30 25 40 39 37 39 40 41 42 44 44 45 46 48 49 49 49 48 50 48 50 53 54 56 55 54 55 56 57
66 65 64 63 60 56 53 48 45 44 42 40 42 43 42 41 33 29 40 40 42 43 44 45 45 45 45 46 46 46 46 49 48 45 45 46 51 54 55 54 54 54 55
61 60 58 56 53 48 46 45 43 42 42 41 41 42 42 43 42 41 39 41 42 42 43 43 44 44 44 44 43 44 46 47 46 45 45 46 47 50 53 53 52 52 54
53 53 51 49 47 45 44 44 44 43 43 43 44 44 43 42 43 43 42 41 40 40 42 41 41 43 43 43 44 44 45 45 44 43 42 42 44 46 50 52 52 51 51
48 47 46 46 45 45 45 45 44 44 44 44 44 44 44 44 44 43 41 38 37 37 35 39 40 40 38 41 41 40 39 41 42 40 39 41 41 44 47 52 53 53 52
46 45 45 45 45 45 45 45 44 43 43 42 41 41 41 40 40 39 37 36 33 33 34 33 34 35 36 36 37 39 39 40 38 38 40 41 40 41 43 49 52 53 53
45 45 45 45 45 44 44 43 42 41 41 40 40 38 38 38 38 38 37 37 35 30 30 31 33 34 34 37 37 36 37 38 38 40 40 40 41 41 44 45 49 52 52
44 45 44 44 43 42 42 41 40 40 38 37 37 36 36 36 35 35 35 35 34 32 30 33 33 34 35 35 36 36 36 37 36 38 39 40 41 42 41 44 47 47 50
44 44 43 43 42 41 40 39 38 37 36 36 35 34 34 34 33 33 33 34 33 34 32 33 34 34 34 35 36 36 37 37 36 37 39 40 41 40 40 41 46 46 46
45 44 42 41 40 39 38 37 36 36 35 34 34 33 33 33 32 33 34 34 35 35 34 32 32 32 32 32 34 35 36 37 37 37 39 40 40 40 39 40 45 46 45
44 43 41 39 38 38 36 36 36 35 34 33 32 32 32 32 33 33 34 34 35 33 33 31 31 32 32 33 33 35 35 37 37 37 38 38 39 39 40 41 44 46 45
41 40 39 38 37 36 36 35 34 33 32 32 32 32 33 33 33 33 34 34 33 33 32 31 31 31 32 33 34 33 33 35 36 38 39 39 39 40 42 42 44 45 44
39 38 37 36 36 35 34 33 32 31 30 31 31 33 33 33 34 35 34 34 33 32 31 30 30 30 31 31 31 32 32 33 35 37 36 36 35 37 41 44 44 44 44
37 36 35 35 34 34 34 33 31 30 31 30 31 32 33 33 33 33 32 31 31 30 30 30 30 29 30 31 32 31 31 31 31 35 33 32 33 34 36 40 43 44 45
36 34 34 34 33 33 33 32 31 30 30 31 31 32 32 32 32 32 31 31 30 31 32 32 30 30 30 32 33 31 31 32 32 32 32 30 32 31 34 37 42 44 44
34 34 33 33 32 33 33 32 31 31 31 31 31 32 31 31 31 32 32 29 30 31 33 33 33 33 33 35 34 33 34 33 33 32 32 28 30 30 32 33 39 44 42
32 32 32 31 31 32 32 31 30 30 30 30 31 32 32 31 32 32 31 29 29 30 32 34 34 35 34 34 36 35 33 32 30 29 31 29 30 30 29 30 33 39 41
32 31 31 31 31 32 33 32 30 30 29 30 31 31 32 32 32 30 29 29 28 29 31 31 32 33 33 33 33 33 34 32 30 30 31 29 28 28 27 29 31 32 34

GFSMA_sfc_30mbdewp_231.txt.gz
Dewpoint
65 64 64 65 63 63 61 60 60 60 60 61 61 61 60 60 58 57 60 59 58 59 60 62 63 64 64 65 65 65 66 67 66 66 66 66 65 65 64 63 63 63 63
65 64 64 64 64 64 63 62 62 62 62 62 62 63 63 63 62 61 63 62 61 61 62 62 63 63 63 62 62 63 63 64 64 65 65 65 65 65 65 64 64 63 63
65 64 63 64 63 65 64 64 64 64 63 63 63 64 64 65 64 64 63 63 63 61 60 59 59 59 59 60 60 61 62 62 63 64 64 64 64 65 65 65 64 64 64
65 64 63 63 64 64 64 65 64 64 64 64 64 64 64 64 64 64 63 62 60 58 57 57 58 56 55 56 56 55 55 56 57 59 60 61 62 62 62 62 63 63 64
65 64 63 63 64 64 64 65 65 65 64 64 64 64 63 63 63 62 61 60 59 55 53 55 51 49 50 50 51 50 50 51 52 53 56 56 57 58 59 60 61 61 61
65 65 64 64 64 64 64 65 65 65 64 64 63 62 63 62 61 59 56 53 52 53 50 45 43 43 46 49 50 50 50 51 51 51 51 51 51 53 54 56 58 59 61
65 65 64 64 64 63 64 65 65 64 62 62 60 59 57 53 51 47 46 47 47 43 44 42 42 42 42 47 48 48 47 48 48 47 48 48 49 49 50 51 54 57 58
65 65 64 63 63 63 64 65 65 62 59 55 56 51 55 51 39 42 43 39 42 41 41 43 45 44 43 42 45 47 47 46 46 46 46 47 47 47 48 48 50 52 56
64 64 64 63 64 64 64 65 64 62 58 51 49 52 47 49 36 39 42 41 43 42 43 42 41 41 43 44 44 45 45 46 45 45 45 45 45 45 45 46 46 48 50
64 64 64 64 64 64 65 65 63 61 57 55 46 44 43 39 42 32 38 41 43 42 42 41 40 40 42 41 44 44 43 42 41 41 41 42 43 43 43 44 44 46 48
65 65 65 65 65 65 65 64 60 59 58 55 49 44 44 44 44 35 27 32 41 42 42 41 40 38 39 41 38 38 40 40 40 39 39 40 41 41 41 42 42 43 44
65 66 66 66 66 65 64 62 60 57 52 51 48 45 42 39 38 37 35 36 36 37 39 37 36 37 38 38 38 38 38 39 39 39 39 39 40 41 41 42 42 42 42
63 65 66 65 64 62 60 58 56 53 49 48 46 44 43 42 43 41 40 35 35 35 34 36 36 36 36 38 37 37 37 38 38 38 38 38 38 39 39 40 42 41 42
64 65 65 63 61 58 56 54 52 49 47 47 45 45 45 44 43 41 37 36 32 33 33 34 34 35 35 36 36 36 36 36 37 37 37 38 39 38 38 39 40 41 42
64 61 61 59 56 54 52 51 49 47 45 46 45 44 42 41 40 39 38 37 35 30 28 31 31 35 35 35 35 35 36 36 37 37 37 37 38 39 38 39 39 39 40
58 58 57 55 53 50 49 48 46 46 43 43 42 41 39 39 38 37 37 35 35 33 30 31 32 34 35 34 34 36 36 36 37 37 37 38 38 39 39 39 39 39 39
56 56 54 52 51 48 46 45 44 43 41 40 39 39 38 37 35 35 35 34 33 34 32 32 34 34 34 35 35 35 36 36 36 36 37 37 38 39 40 40 40 40 40
54 53 51 50 47 45 44 43 42 41 39 38 38 37 36 34 35 34 34 34 34 34 33 32 33 33 33 34 35 36 36 36 36 36 36 37 38 40 39 38 39 40 41
51 50 48 47 45 43 42 42 40 39 39 37 36 36 35 34 34 35 35 34 35 33 33 33 32 33 34 35 35 36 36 36 36 36 37 38 38 38 37 37 38 39 42
48 47 46 45 43 42 42 41 40 38 37 36 36 34 34 34 34 34 34 34 33 33 33 32 31 33 34 35 36 34 33 36 35 37 37 37 37 36 37 36 36 38 38
47 46 45 43 42 42 40 39 38 36 35 34 35 34 35 35 34 35 34 34 33 32 31 31 32 32 33 33 33 34 33 34 35 37 36 36 36 36 35 34 35 35 37
45 45 44 42 41 39 38 37 36 35 34 33 33 34 34 34 33 32 32 31 31 31 30 31 31 31 31 33 33 33 33 32 31 37 34 34 35 35 33 33 34 36 41
44 43 42 41 39 36 35 34 34 34 33 33 33 33 33 33 32 32 31 31 31 30 31 32 31 31 31 33 33 32 33 33 32 35 34 32 36 34 34 32 33 35 39
43 42 40 38 37 35 34 33 32 33 33 33 34 34 33 33 33 32 32 31 30 31 31 33 33 34 34 35 34 34 34 34 35 35 34 31 35 33 34 32 31 34 38
39 38 38 37 35 34 33 31 32 33 32 32 33 34 33 33 31 32 31 30 30 31 31 32 33 34 34 34 33 33 32 31 32 33 33 30 33 31 33 30 30 32 33
37 36 35 35 34 34 32 32 32 32 32 32 33 33 32 33 32 30 30 30 29 30 31 32 33 33 33 33 33 32 30 30 31 32 32 30 31 31 31 30 29 29 32

GFSMA_sfc_30mbdewp_234.txt.gz
Dewpoint
61 60 59 59 59 58 58 57 56 57 57 58 59 60 58 56 57 57 59 59 59 59 61 62 63 63 64 64 65 64 65 65 66 67 67 67 66 65 65 65 64 64 64
61 61 60 60 60 59 58 58 58 59 60 60 61 62 61 61 62 60 61 62 61 61 62 62 63 62 62 61 61 61 62 63 63 63 64 65 65 65 65 65 65 64 64
63 61 60 60 60 61 60 61 62 62 62 63 62 62 63 63 63 63 63 63 62 61 59 59 59 59 59 58 58 59 59 59 59 59 60 61 63 63 63 63 64 65 64
64 64 60 60 60 61 62 61 62 62 62 62 62 62 63 63 64 64 64 64 62 61 59 57 57 54 52 52 51 51 51 52 53 54 56 57 57 58 58 59 59 61 63
65 64 61 60 62 62 61 61 62 62 62 63 62 63 64 63 63 63 63 63 63 61 58 55 49 47 48 49 50 50 50 50 52 53 52 52 52 53 53 54 55 57 59
66 65 62 62 63 61 61 61 61 63 63 63 63 62 63 63 63 62 61 61 59 57 54 47 43 42 44 47 49 49 48 48 49 49 49 49 50 50 51 51 51 52 54
65 65 63 63 64 61 61 62 62 63 64 64 63 62 62 62 62 60 57 55 53 50 44 40 38 38 39 45 46 48 47 48 47 47 48 48 48 48 48 48 49 49 50
65 65 63 62 63 61 61 62 62 64 64 64 62 60 56 56 54 53 52 48 44 39 38 39 41 40 39 38 44 46 47 46 46 46 46 46 46 46 46 46 46 47 47
65 65 64 62 63 62 61 62 63 63 62 60 60 58 55 52 49 42 43 40 42 39 39 39 39 39 40 41 42 44 44 43 42 42 42 43 43 43 44 44 44 45 45
64 64 64 64 63 63 61 63 64 63 63 60 57 54 50 46 50 49 40 40 40 40 39 40 38 39 38 39 42 44 41 41 40 40 41 41 42 42 43 43 43 43 44
64 64 64 64 64 64 63 64 64 65 63 61 59 54 52 47 47 46 48 42 39 38 39 39 38 37 38 40 38 38 40 40 39 39 40 41 41 42 43 44 44 44 44
64 64 64 64 65 65 64 65 66 65 63 62 60 54 52 51 49 47 46 40 32 35 38 38 37 37 37 37 37 39 39 39 39 38 38 39 40 41 41 41 42 43 44
64 64 64 65 66 65 65 66 66 65 64 61 58 54 50 46 43 42 35 32 31 32 35 37 37 36 36 37 37 38 37 39 38 38 38 38 38 40 40 40 41 42 42
64 65 65 66 67 66 67 66 66 65 62 57 54 50 47 45 42 40 35 32 30 32 35 36 36 36 36 37 37 37 37 38 39 38 38 37 37 38 39 39 39 40 41
64 65 65 66 66 66 65 63 60 55 54 52 50 50 46 44 43 40 36 35 33 29 29 33 33 35 36 37 36 37 38 38 37 38 37 37 36 37 38 39 40 40 40
65 66 65 66 65 64 62 59 58 54 50 50 48 45 42 41 40 39 39 37 36 34 30 31 32 35 37 36 36 37 38 37 38 37 37 37 37 37 39 40 40 40 41
65 65 64 64 63 61 60 58 55 50 48 46 45 44 41 40 38 37 37 36 35 34 33 33 34 36 37 37 37 37 37 36 36 37 37 37 37 38 39 39 38 38 39
63 63 62 62 61 59 56 53 49 47 45 43 42 41 40 39 38 37 36 36 35 35 34 34 35 35 36 36 37 37 36 36 37 36 37 37 38 39 38 38 38 37 37
60 60 61 59 57 53 51 47 45 44 43 41 40 40 39 36 37 36 37 37 36 35 35 35 35 35 36 37 37 37 36 37 37 38 37 37 38 38 38 38 36 37 37
57 57 57 56 54 50 47 43 42 40 41 41 40 40 37 36 37 37 36 37 36 36 35 35 35 35 36 37 37 36 35 37 37 38 37 37 37 37 37 36 36 36 36
55 53 53 53 51 48 44 42 42 41 40 38 39 37 38 37 36 36 35 37 36 36 35 34 34 34 34 35 35 36 35 36 37 39 37 37 36 37 36 36 35 34 36
51 51 48 47 46 43 42 41 42 41 38 38 37 36 37 35 35 34 33 32 33 35 34 33 33 34 34 34 36 34 34 34 32 39 38 36 37 37 36 35 34 34 35
49 48 46 46 44 41 39 38 38 38 37 37 36 35 34 34 35 34 31 31 31 30 31 33 33 33 34 35 34 33 34 34 34 37 36 35 38 37 36 34 33 33 35
47 46 46 46 44 41 37 37 37 38 37 37 36 36 34 35 36 35 34 33 33 33 32 32 33 34 36 36 35 34 34 35 36 38 36 33 36 34 35 33 32 32 33
45 44 44 43 41 38 35 35 37 37 36 37 37 37 36 35 32 32 34 34 32 32 31 32 32 33 34 34 34 34 33 32 32 35 34 32 34 33 34 34 32 31 32
41 41 40 39 37 36 34 35 36 36 35 34 36 35 34 35 32 30 33 32 30 31 31 33 34 34 34 34 33 34 33 30 31 32 32 31 33 33 31 35 33 31 31

GFSMA_sfc_30mbdewp_237.txt.gz
Dewpoint
61 58 57 56 56 55 55 55 53 54 54 55 55 56 57 57 55 54 57 58 59 60 61 62 63 64 64 65 64 64 64 63 63 64 65 64 64 65 66 66 65 65 65
62 59 58 58 57 57 56 57 56 56 57 56 58 59 59 57 58 59 59 62 60 61 63 63 63 62 62 61 61 61 61 62 62 61 62 63 63 63 63 63 64 65 65
64 62 59 59 58 59 59 59 58 59 59 60 60 61 61 61 61 63 63 63 62 62 62 60 59 59 58 57 57 56 55 55 55 54 56 58 58 58 59 59 59 60 60
65 64 60 59 59 60 60 59 59 60 60 60 60 60 61 63 64 63 63 63 63 63 60 58 57 54 52 51 51 51 51 51 52 53 54 55 54 54 55 55 55 56 57
66 64 62 60 62 60 60 60 60 60 60 61 62 63 62 63 63 63 63 63 63 63 61 57 51 48 48 49 49 49 49 50 50 50 51 51 50 50 52 51 52 52 52
67 66 63 63 63 61 60 61 60 60 60 62 61 60 63 63 64 63 62 62 62 62 60 57 49 45 46 46 46 48 49 49 49 49 49 49 49 49 49 50 49 49 50
66 67 65 64 63 62 61 63 62 61 61 63 63 62 62 63 63 62 59 58 58 57 55 47 42 37 44 46 49 48 48 48 48 48 47 47 47 47 47 47 47 47 47
67 67 66 63 64 62 63 62 63 61 63 63 62 60 58 58 59 59 58 56 56 50 42 41 40 41 40 39 45 48 48 46 44 43 43 44 44 44 45 45 45 45 46
66 67 67 65 64 64 63 64 64 63 62 64 64 59 55 53 56 52 53 49 46 43 39 38 40 39 40 40 41 47 44 42 42 42 43 43 43 44 44 44 44 45 45
66 66 66 66 65 65 64 64 64 63 64 62 63 63 60 54 52 49 47 47 46 44 41 40 38 40 39 40 43 43 41 41 40 41 42 42 42 43 43 44 45 45 45
67 66 67 66 66 65 65 65 64 65 64 63 61 60 59 57 55 54 53 47 45 42 38 40 41 40 39 40 40 42 40 39 39 39 40 40 41 42 43 43 44 43 43
67 67 66 67 66 66 65 65 65 65 65 65 62 60 59 56 55 54 54 54 50 42 41 40 40 39 38 38 38 38 39 38 39 40 39 40 40 41 41 42 42 42 42
66 66 67 66 66 66 66 66 66 66 66 65 64 62 59 57 54 54 52 49 41 38 36 39 39 39 37 39 39 38 38 39 40 39 39 39 39 39 39 41 40 40 41
65 66 67 66 66 66 66 67 66 66 66 66 64 62 57 50 47 47 44 44 39 34 36 39 39 38 38 38 38 37 38 41 38 38 38 37 37 38 38 39 41 42 42
64 66 66 66 66 66 66 67 66 67 66 65 62 56 53 50 49 46 42 38 35 30 32 38 37 37 38 38 39 38 39 40 37 39 38 38 38 38 38 39 39 40 40
65 65 65 66 66 66 67 66 66 64 62 60 57 55 50 48 45 42 41 38 37 36 33 32 34 36 38 39 38 38 39 38 38 37 38 38 38 38 39 39 38 38 39
66 66 65 65 66 67 67 66 63 60 58 55 53 50 47 45 43 42 42 39 38 37 35 35 36 37 39 39 39 39 38 37 36 38 38 38 39 38 39 39 39 38 38
67 65 66 65 65 66 64 63 61 57 54 50 48 47 44 42 41 40 40 39 37 37 36 35 37 37 37 38 38 39 38 36 38 37 37 38 38 38 39 39 38 37 37
66 65 66 65 64 63 62 61 57 55 52 49 47 45 43 41 41 39 38 38 38 37 37 37 37 38 38 39 39 38 38 38 37 37 37 37 37 38 39 38 38 37 36
64 64 63 63 62 61 59 56 54 51 49 46 45 43 41 40 40 40 39 39 38 38 38 37 37 37 38 38 38 37 36 37 37 38 38 38 38 38 38 37 37 35 35
63 62 61 60 57 55 53 51 48 46 44 43 42 42 42 39 39 39 38 38 38 38 38 37 37 37 35 36 35 36 35 35 36 39 38 38 37 38 38 37 35 34 35
60 60 57 56 53 51 49 48 46 45 43 42 41 40 38 36 35 34 35 34 36 38 37 37 37 36 34 35 35 35 36 35 33 38 38 37 38 38 37 36 34 34 34
54 53 54 53 51 48 46 45 45 44 42 40 39 38 36 36 37 35 32 32 31 30 31 34 36 35 34 35 36 35 35 35 33 36 38 34 39 36 37 36 35 33 33
50 49 49 48 44 43 43 42 42 42 41 40 38 38 35 36 36 35 33 33 34 35 34 32 33 34 36 36 36 35 35 35 35 38 36 33 35 34 36 36 34 32 32
47 47 47 46 43 41 41 40 41 40 39 38 40 38 38 37 36 35 36 37 36 33 32 31 32 32 33 35 34 34 32 30 30 33 32 32 34 34 35 35 35 32 31
44 45 44 43 41 40 40 40 40 39 38 38 39 38 37 37 33 33 36 34 31 32 32 33 35 34 35 35 32 33 33 30 29 31 31 30 32 33 31 36 34 34 32

GFSMA_sfc_30mbdewp_240.txt.gz
Dewpoint
62 61 61 61 60 59 58 58 57 57 56 56 56 56 56 56 58 58 55 55 58 60 62 63 65 65 65 65 64 63 63 62 62 63 63 64 64 64 63 63 64 64 65
64 62 61 60 59 59 57 59 57 58 57 58 58 58 59 60 59 58 58 60 60 60 62 64 64 63 62 61 61 60 60 60 58 57 58 59 60 59 59 59 59 60 60
65 62 61 62 60 60 58 59 59 60 59 59 59 60 61 62 61 63 64 62 61 61 62 63 61 60 58 57 56 54 54 54 54 54 55 57 56 55 55 56 56 55 55
66 64 63 62 62 62 62 61 61 60 60 61 61 62 63 63 62 64 65 64 63 62 62 61 59 57 54 52 51 51 51 51 52 52 52 53 53 52 52 53 53 53 53
66 67 63 63 63 63 62 62 62 62 61 62 63 63 63 64 64 64 64 64 64 64 61 59 57 53 50 50 49 48 49 50 50 51 51 50 51 51 50 50 50 50 50
67 66 65 65 64 63 62 63 62 62 62 61 58 60 63 64 64 64 64 64 63 64 60 56 52 49 46 49 48 49 49 50 50 50 49 48 48 47 48 47 48 48 48
68 67 66 65 66 62 62 63 63 63 62 63 62 62 63 64 64 64 64 63 63 63 61 55 51 47 47 50 50 49 49 49 48 46 45 45 45 45 46 46 46 46 46
68 67 67 66 65 63 63 63 63 62 62 63 62 62 60 62 63 64 63 61 59 56 50 45 44 42 43 48 50 49 49 47 45 44 44 44 45 45 45 46 46 46 45
67 67 67 66 65 64 63 64 64 62 62 63 64 61 58 57 60 60 58 56 52 48 45 44 43 42 42 43 50 46 44 43 42 42 42 43 44 44 44 45 45 45 46
66 67 67 67 66 65 64 64 64 63 63 62 64 64 64 56 55 48 52 51 48 47 48 44 44 42 41 43 47 45 42 40 40 40 41 42 43 43 43 44 44 45 44
66 66 67 67 66 66 65 65 64 64 64 63 62 62 63 60 57 54 47 47 49 49 47 46 44 42 42 41 45 42 40 39 39 40 41 42 42 42 42 43 43 44 43
66 66 67 67 67 66 66 65 65 64 64 64 63 62 60 60 58 55 55 51 46 47 45 45 43 43 41 41 40 40 39 38 40 41 41 40 40 41 41 41 42 42 42
66 66 67 67 67 66 66 66 66 64 65 64 64 62 62 60 58 56 55 55 52 45 44 44 43 42 40 40 41 38 39 41 39 39 39 38 38 39 39 40 41 41 42
66 67 67 67 67 67 66 66 65 65 65 65 65 63 62 60 57 56 53 49 44 44 39 41 44 41 40 41 40 38 41 40 39 39 39 38 38 39 39 39 40 40 41
65 66 68 67 67 67 66 66 66 65 66 65 65 65 61 52 52 52 48 48 46 39 37 44 42 41 40 41 39 40 41 42 38 39 38 38 39 39 39 40 39 39 39
66 66 67 67 67 67 66 66 65 66 66 66 65 60 55 53 51 47 43 40 39 37 35 39 39 42 41 41 40 40 41 40 39 38 38 38 39 39 39 39 40 39 38
64 65 67 66 67 66 66 66 66 66 66 65 59 56 53 50 47 46 42 41 40 39 37 39 38 40 40 40 40 41 41 39 38 39 38 37 38 39 39 40 40 38 38
66 66 66 66 65 66 66 66 64 64 62 59 57 53 50 47 45 44 42 41 41 40 38 37 39 39 39 40 40 40 40 39 39 38 38 38 38 39 39 39 38 38 37
66 67 66 65 64 64 66 66 63 61 58 56 55 51 48 46 43 43 41 41 40 39 39 39 39 40 40 40 39 38 38 37 38 38 37 38 38 39 38 38 38 36 36
66 66 66 66 65 64 64 63 59 58 55 53 52 50 47 45 42 42 41 42 41 39 39 39 38 39 38 38 37 36 36 36 36 36 38 38 39 39 39 38 36 35 35
65 65 65 65 63 62 61 59 57 55 53 50 50 48 47 45 44 43 42 42 41 40 39 39 38 37 36 36 35 36 35 34 35 37 36 36 37 38 37 37 36 34 34
62 63 62 62 60 59 57 55 53 50 49 47 45 44 41 40 39 38 39 40 42 40 40 39 38 36 35 35 35 34 35 34 32 37 35 36 37 37 36 35 36 35 33
55 58 60 59 58 55 53 51 50 49 47 46 44 42 40 38 38 36 34 34 34 34 37 38 37 36 34 34 35 33 33 34 32 34 36 33 35 33 35 34 36 34 33
52 52 53 52 52 50 49 47 48 47 46 45 43 41 39 38 37 35 35 35 33 32 31 32 35 36 37 36 36 35 34 33 33 34 33 31 33 31 33 36 36 33 32
48 48 49 48 46 46 46 46 46 45 43 41 42 40 38 38 35 35 34 35 35 32 33 33 33 33 33 34 34 33 32 30 29 32 31 30 31 31 34 35 35 33 32
46 46 46 44 43 43 43 44 42 41 40 39 39 39 37 37 36 37 38 36 33 31 32 32 32 33 34 34 32 33 32 28 28 29 30 28 30 31 30 35 35 33 31

GFSMA_sfc_30mbdewp_246.txt.gz
Dewpoint
63 63 63 65 64 64 62 62 61 60 59 57 56 55 54 54 53 55 57 59 59 63 67 67 68 69 69 68 67 65 63 62 61 60 59 60 59 57 57 56 55 55 55
62 62 63 63 63 63 61 60 59 58 57 56 55 55 55 57 54 55 55 56 58 61 64 67 68 67 66 65 63 61 61 58 56 56 57 57 56 55 54 54 54 54 53
62 60 62 62 62 61 60 59 58 58 56 56 55 55 57 58 59 57 54 55 58 61 62 64 65 65 64 63 60 58 57 55 55 54 54 54 53 53 53 52 52 52 51
62 60 61 62 61 60 59 58 58 57 57 56 56 57 58 58 59 62 57 57 59 61 61 63 63 63 61 59 57 55 54 54 53 53 52 52 51 50 49 49 49 49 49
61 61 61 62 61 60 59 58 58 57 57 57 57 58 59 59 59 63 62 60 60 61 62 62 62 61 58 57 54 53 52 52 52 52 50 49 48 48 48 48 49 49 49
62 62 62 61 62 60 60 58 57 59 58 58 58 58 60 62 63 64 64 63 62 62 62 62 61 59 56 55 53 50 52 52 51 49 48 48 47 47 48 48 48 48 48
62 63 62 63 62 62 60 60 59 58 60 60 59 60 61 63 63 63 64 64 64 64 62 61 60 56 54 53 51 52 52 52 50 48 47 46 46 47 47 47 47 47 47
63 62 63 63 62 61 62 62 61 60 59 61 59 59 58 59 62 63 64 63 63 64 62 60 58 54 50 51 52 52 53 51 48 45 45 45 45 46 47 46 46 46 45
64 63 64 64 63 63 61 62 62 61 59 61 61 59 57 56 58 61 63 63 63 63 62 59 56 51 47 50 52 53 50 48 44 43 43 44 45 46 46 45 46 45 45
66 65 64 64 65 64 63 62 62 62 60 60 62 62 60 59 57 55 55 60 61 60 58 55 51 48 47 50 51 49 45 42 41 42 43 44 44 44 43 44 44 44 44
67 67 66 65 65 65 64 64 62 62 62 60 61 61 60 58 55 53 54 53 52 51 51 49 46 45 49 49 48 46 43 41 40 42 42 42 43 42 42 42 42 43 43
66 67 67 67 66 65 65 65 64 63 62 62 61 61 61 60 58 55 50 49 51 49 48 46 44 44 47 47 45 44 42 39 40 40 40 41 41 41 41 42 42 42 42
64 66 67 67 67 66 65 65 65 63 63 62 62 61 62 61 60 59 55 48 49 48 47 47 44 44 45 44 43 43 41 40 40 39 40 41 40 40 41 41 41 41 41
64 65 66 67 67 67 67 66 65 64 64 63 63 62 62 62 62 59 58 53 49 45 44 45 47 44 44 44 43 42 41 40 40 40 40 41 40 40 40 40 41 41 40
65 65 65 66 66 66 66 67 66 65 64 64 63 63 63 63 62 61 59 56 54 48 43 47 45 46 45 43 42 41 41 41 41 40 40 38 39 40 40 40 41 41 39
66 66 66 66 66 66 66 66 66 66 65 65 64 64 63 63 62 60 59 57 56 55 50 47 45 44 44 42 42 41 41 42 39 38 38 38 39 40 40 41 41 40 39
64 66 66 66 66 66 66 66 66 66 65 65 65 64 64 64 61 60 59 56 55 54 52 46 45 44 41 41 41 41 40 39 38 38 39 39 39 39 40 40 39 38 37
64 64 65 66 66 66 66 66 66 66 65 64 64 64 64 63 61 59 57 55 53 52 51 48 42 41 41 41 40 38 38 37 36 38 37 38 38 39 39 38 37 37 36
60 62 64 64 65 66 66 66 66 65 65 65 64 64 64 60 60 56 56 54 53 52 49 46 41 41 40 40 38 37 37 35 36 36 36 36 37 38 38 37 37 36 36
56 58 60 62 63 64 65 65 65 65 65 64 64 64 63 59 59 55 54 53 52 49 47 42 41 39 38 37 36 35 33 34 33 36 35 35 37 38 36 36 36 36 35
50 54 56 58 60 62 62 63 63 63 63 62 61 61 60 57 57 55 54 52 49 47 45 42 40 37 37 35 35 35 33 33 33 34 33 33 36 34 34 34 36 36 34
47 49 51 54 56 57 59 60 61 61 60 59 58 56 54 54 54 53 52 50 50 46 43 41 40 37 36 35 34 33 33 31 29 33 33 32 33 31 32 33 36 35 33
47 46 47 50 52 53 53 54 56 60 58 57 56 53 51 51 50 50 49 48 47 45 44 41 39 38 36 35 34 33 33 32 31 32 31 30 31 29 31 33 36 34 33
46 46 46 47 49 49 50 50 51 51 55 56 54 52 51 48 49 47 46 44 43 42 42 41 39 36 35 35 34 33 33 31 32 31 30 28 29 28 30 33 35 32 32
44 44 45 45 46 47 47 47 48 49 49 49 50 50 49 47 45 44 43 39 36 35 37 37 36 36 35 35 35 33 30 29 29 30 29 27 27 28 29 32 34 31 31
43 43 43 43 43 44 45 45 44 45 46 44 43 44 44 44 41 42 39 36 33 33 33 34 34 34 34 34 33 32 30 28 27 28 29 27 27 30 27 27 30 29 29

GFSMA_sfc_30mbdewp_249.txt.gz
Dewpoint
65 64 64 65 65 65 63 62 61 61 60 59 57 56 55 55 53 52 55 62 62 63 66 66 65 67 68 69 69 68 66 64 62 60 59 59 57 57 56 55 55 55 54
64 63 63 64 64 64 63 61 60 59 58 58 56 55 54 55 56 55 56 59 59 59 64 68 68 68 69 68 66 64 63 60 58 58 57 56 55 54 54 53 53 52 52
62 62 62 62 63 63 62 60 59 58 57 56 55 54 54 55 57 56 55 55 57 58 62 66 66 67 67 65 63 62 59 56 56 55 55 54 53 52 51 50 50 50 50
62 61 62 62 62 62 61 60 58 57 56 55 55 55 55 56 57 59 57 54 55 58 60 63 65 65 65 64 62 58 56 55 54 54 53 51 50 49 49 49 50 50 50
62 61 61 61 61 61 60 59 58 56 55 55 56 56 56 57 58 59 60 57 56 58 60 61 63 64 63 62 59 57 55 53 53 53 50 49 49 48 48 49 49 49 49
61 61 60 61 61 60 60 59 57 58 56 55 56 56 57 58 60 60 61 61 59 59 61 61 62 62 61 59 57 55 53 54 53 51 49 48 47 47 48 48 48 48 48
61 60 60 61 61 60 60 59 58 57 57 59 57 58 59 61 61 62 63 63 62 61 61 62 61 60 58 57 55 52 54 54 52 50 47 46 46 47 48 48 48 48 47
61 61 60 61 61 61 60 60 58 58 58 59 57 58 56 57 60 62 63 63 63 63 62 62 61 58 56 54 53 54 54 54 51 48 46 45 46 47 47 47 47 47 46
61 61 61 61 61 61 61 61 60 59 58 60 59 57 57 56 57 60 62 63 63 63 64 62 60 57 54 52 51 54 54 53 50 46 44 44 45 46 46 45 45 45 45
63 63 61 62 62 62 61 62 62 61 60 59 61 61 59 58 56 54 57 59 62 62 62 61 59 55 51 50 51 53 52 49 45 44 44 44 44 44 44 44 44 44 44
64 63 63 63 63 63 63 63 62 62 62 60 60 60 60 59 57 56 55 54 53 57 59 59 57 53 49 50 51 51 49 43 42 43 43 43 43 42 43 43 43 44 44
65 65 64 63 63 64 64 64 64 62 62 61 61 61 60 59 59 55 54 52 53 53 51 51 52 50 49 49 49 49 46 41 41 43 42 42 42 42 42 42 43 43 43
64 66 66 65 65 64 64 65 64 64 63 62 62 61 61 61 60 59 57 51 51 50 48 48 47 46 49 48 48 47 44 41 41 42 41 41 41 41 41 41 42 42 42
64 65 66 66 66 66 65 65 65 64 64 63 62 62 62 61 61 60 59 57 51 48 46 47 47 45 47 47 46 46 44 41 41 41 40 41 41 40 41 41 41 42 42
66 66 66 66 66 67 66 66 65 65 64 64 63 63 62 62 62 62 61 59 58 56 49 45 46 47 47 47 46 44 42 42 41 40 41 41 39 40 41 41 41 42 40
66 66 65 65 66 67 67 66 66 66 65 64 64 64 63 63 63 62 61 61 60 59 56 48 48 48 48 46 45 43 41 42 41 39 38 38 39 40 40 40 41 41 38
64 65 65 65 65 66 66 66 66 66 65 65 64 64 63 64 63 63 62 61 60 60 59 53 49 48 46 45 44 43 43 41 40 38 39 39 39 39 39 40 40 38 38
60 62 63 65 65 65 65 65 65 65 65 65 64 64 64 64 63 63 62 61 60 60 59 54 47 46 45 45 43 41 40 38 37 38 37 39 37 38 39 38 37 37 36
53 57 59 61 63 64 65 65 65 65 65 65 65 64 63 64 63 63 62 60 59 59 58 54 47 45 43 43 41 39 38 36 36 37 37 35 37 39 37 37 36 35 35
48 50 53 57 59 61 62 63 64 64 65 65 65 64 64 64 63 63 60 59 58 55 53 51 46 44 42 41 40 37 35 35 33 36 35 35 37 37 35 35 35 37 35
46 47 47 51 53 56 57 55 58 61 63 64 64 64 64 64 62 62 60 58 56 54 50 47 44 40 38 38 39 36 35 34 34 34 33 33 35 32 32 33 35 36 34
45 44 44 46 48 51 51 50 50 54 59 60 61 59 59 59 59 58 58 57 55 53 49 47 45 43 40 39 37 35 33 32 30 33 33 32 32 29 31 32 36 34 33
45 44 43 44 43 45 47 46 47 50 53 56 58 57 56 55 55 55 53 54 52 50 50 49 45 43 39 37 36 34 33 32 31 31 31 30 31 28 30 33 36 32 31
42 45 44 44 44 43 43 43 44 47 49 51 54 55 55 53 52 52 51 48 45 45 46 44 43 40 39 38 36 35 33 32 31 30 30 28 29 28 28 33 33 30 30
36 40 43 43 42 39 43 44 44 45 45 46 47 49 51 51 50 49 47 42 38 37 38 38 37 36 36 35 35 33 31 31 31 30 29 27 27 28 29 29 32 28 28
37 40 41 42 40 40 40 42 43 43 44 44 43 45 47 47 46 46 42 37 35 33 34 34 34 34 35 35 34 33 32 31 30 28 29 27 27 29 27 26 29 26 26

GFSMA_sfc_30mbdewp_252.txt.gz
Dewpoint
65 64 64 65 65 65 63 62 61 61 60 59 58 57 55 55 54 52 51 58 65 66 67 66 67 68 69 69 68 67 67 66 64 62 60 58 57 56 55 55 54 53 53
64 64 63 64 64 64 63 61 60 60 59 58 57 56 55 54 55 54 55 55 62 63 63 66 67 66 67 69 68 68 65 63 60 59 58 56 55 54 53 52 51 51 51
63 63 62 62 63 63 62 61 60 59 58 57 56 55 54 53 55 56 56 56 58 60 59 62 67 67 68 68 67 64 63 59 58 56 56 54 53 51 50 50 50 50 51
63 62 62 62 62 62 62 61 59 58 57 56 55 54 54 54 54 56 58 56 56 57 57 60 65 66 67 67 65 63 60 57 56 56 54 52 50 49 49 49 50 50 50
62 61 61 61 61 61 61 60 59 57 55 55 54 54 55 55 55 57 58 58 56 55 57 59 61 65 66 65 64 62 59 57 55 54 52 50 49 48 49 49 50 50 50
62 61 61 61 61 61 60 60 58 58 56 54 54 54 56 56 57 58 59 60 58 56 57 59 61 63 64 64 63 60 58 56 54 54 51 49 48 47 48 49 49 49 49
62 61 60 60 61 60 60 59 58 57 57 57 55 56 57 58 58 59 60 61 61 59 59 59 61 62 62 62 61 59 57 55 55 53 50 48 47 47 48 49 49 49 48
61 61 60 60 60 60 60 59 58 57 57 58 55 56 54 56 59 60 61 62 62 62 61 61 61 61 60 59 58 58 56 56 55 53 49 47 46 47 48 48 48 47 47
61 60 59 59 60 60 59 60 59 58 57 58 58 55 55 54 56 58 61 62 63 63 63 62 61 60 59 58 56 55 55 56 55 52 48 46 46 46 47 46 46 46 46
60 60 59 59 59 60 59 60 60 59 58 57 59 59 58 58 56 54 56 58 62 62 62 62 61 60 58 56 54 53 54 55 54 51 47 46 45 46 45 44 45 45 45
60 60 60 59 59 59 60 60 61 61 60 59 59 59 59 59 57 57 56 56 55 58 61 62 61 60 57 55 53 52 53 53 51 49 46 45 44 44 44 44 44 45 45
62 61 61 60 60 61 61 61 61 61 61 61 60 60 59 58 58 57 56 57 56 56 56 57 59 59 56 54 53 51 52 51 47 46 46 44 44 43 43 43 43 44 44
63 63 63 62 62 62 63 63 63 62 61 61 61 61 61 60 60 59 58 57 55 53 52 51 52 55 54 52 52 51 51 48 43 44 45 44 43 42 42 42 42 42 43
63 65 65 65 64 64 64 64 64 64 63 62 62 62 62 61 62 61 60 58 56 52 51 52 49 50 52 51 50 51 50 44 42 42 44 43 43 42 41 41 42 42 42
64 65 66 66 66 66 66 65 64 64 64 64 63 63 63 63 62 62 61 61 60 58 56 53 50 48 49 50 50 50 48 45 41 42 41 41 43 41 41 41 41 41 42
66 65 64 65 63 63 65 64 65 65 65 64 64 63 63 63 63 63 62 61 61 60 58 58 51 48 49 49 49 47 44 44 44 42 41 41 40 40 40 41 41 41 39
61 60 61 63 63 59 60 56 59 65 64 65 64 64 63 64 63 63 63 62 62 61 59 59 51 49 48 47 47 47 47 46 44 42 39 39 39 39 39 40 40 38 38
59 61 62 63 64 65 65 65 63 64 64 63 64 64 64 63 63 64 63 62 62 62 60 59 50 47 47 47 47 47 45 44 41 40 39 38 38 38 39 38 38 37 36
51 54 56 58 59 60 62 63 64 64 64 64 64 64 64 63 63 63 63 63 62 61 60 59 51 47 46 48 45 45 43 40 40 40 38 38 37 38 37 37 36 36 36
46 47 49 51 53 56 56 56 57 60 62 63 64 64 64 64 63 63 62 62 61 59 57 56 49 46 44 44 44 41 37 37 36 37 37 36 38 36 35 34 35 37 36
45 45 45 46 47 50 49 49 52 54 56 59 61 63 64 64 63 63 62 61 59 58 53 52 47 43 41 40 41 41 39 35 36 36 35 34 35 33 32 33 36 34 33
41 43 43 43 43 44 44 43 46 50 52 54 56 58 59 60 60 59 57 59 59 58 53 51 48 46 44 43 42 39 35 34 33 34 33 33 33 30 32 34 35 32 31
37 39 42 42 42 43 42 42 43 47 48 50 51 53 54 55 55 55 56 53 52 53 52 52 50 47 44 41 40 37 35 34 32 32 32 31 31 30 32 35 33 31 30
35 37 39 42 42 41 41 42 43 44 45 47 48 48 50 52 53 53 52 50 46 45 48 49 49 45 42 40 39 38 35 31 30 31 32 30 31 31 31 33 32 29 28
34 35 39 40 40 40 39 39 40 42 42 42 44 46 46 48 50 50 49 44 38 36 37 39 40 40 39 39 36 34 32 32 31 30 31 31 29 29 31 30 28 27 27
35 36 36 38 40 40 39 38 39 41 39 41 42 43 45 45 47 47 45 41 39 35 35 35 35 35 35 35 35 35 33 32 31 30 30 29 29 29 27 28 29 26 26

GFSMA_sfc_30mbdewp_255.txt.gz
Dewpoint
64 64 63 64 64 63 61 61 61 61 62 62 61 59 56 55 56 52 51 59 63 65 68 69 69 70 69 68 67 67 67 67 66 64 61 59 58 56 55 55 54 53 52
64 63 63 64 63 63 61 60 59 59 59 59 59 58 56 54 56 56 54 54 57 64 66 67 67 68 68 69 69 68 67 66 64 61 60 58 56 55 53 52 51 51 51
64 63 62 62 61 62 62 61 61 60 58 58 57 56 56 55 54 56 57 57 56 59 64 63 64 67 67 68 68 68 67 64 61 60 58 56 54 52 51 50 50 51 51
64 63 62 61 61 62 61 60 59 58 57 55 54 54 53 54 54 54 57 58 57 57 60 60 60 65 67 68 68 67 65 62 60 58 57 55 52 50 50 50 50 51 51
64 63 61 61 62 61 61 60 59 58 55 55 54 54 54 53 53 51 54 58 60 58 58 57 58 61 65 67 67 66 64 61 59 57 55 53 51 50 49 49 50 50 50
64 63 61 61 62 60 60 60 59 59 57 54 52 50 53 54 55 56 55 56 58 60 59 58 57 57 62 66 66 65 64 60 58 57 55 52 51 49 48 49 50 50 50
64 63 61 61 61 59 59 60 59 59 57 58 57 55 54 55 56 56 57 57 58 60 60 60 59 58 60 64 65 65 63 61 59 56 54 52 50 48 48 49 49 49 49
63 62 61 60 60 59 60 60 59 57 58 59 57 56 53 53 59 58 58 58 59 60 60 61 61 61 61 62 63 63 62 61 59 57 55 52 50 48 48 49 48 48 48
63 63 62 60 60 60 59 60 60 58 56 59 59 56 56 53 58 60 61 61 61 61 61 62 62 62 62 62 62 61 60 60 59 58 55 52 49 48 48 48 47 47 47
62 62 62 61 61 60 59 59 59 58 58 56 59 59 58 59 54 53 58 60 63 63 63 63 63 63 63 62 62 61 59 57 57 58 55 51 49 48 47 46 46 46 46
62 61 62 61 60 60 59 59 59 60 59 57 58 58 59 59 59 57 55 56 59 59 62 63 63 64 63 62 62 61 56 55 55 57 55 51 49 47 46 45 45 45 46
61 61 61 61 60 59 59 60 61 60 60 60 59 59 59 57 58 58 57 58 58 59 60 62 63 64 64 62 62 60 56 53 54 55 53 50 48 46 45 44 44 44 45
60 60 61 61 60 60 60 60 61 61 61 61 61 60 61 61 61 61 60 59 59 59 57 57 59 61 62 62 61 57 54 52 53 53 51 49 46 45 44 43 43 43 43
61 62 63 63 62 61 62 62 62 63 62 63 63 63 63 63 63 63 61 60 58 58 58 57 57 56 58 59 59 55 56 51 51 48 47 46 45 46 43 42 42 42 42
64 64 64 64 64 63 63 63 64 64 64 64 64 64 64 63 64 64 63 63 58 56 58 60 57 54 54 55 55 54 55 49 48 45 45 45 46 45 42 42 42 42 42
65 65 65 65 65 65 66 65 65 65 65 65 65 64 64 64 64 64 63 63 63 61 59 60 61 56 52 51 52 53 53 47 45 43 45 45 44 43 41 41 41 41 40
63 62 61 60 58 58 61 60 61 61 63 61 59 63 63 63 63 64 64 63 63 62 59 60 61 56 53 52 51 52 50 48 47 45 44 42 42 40 39 39 40 39 38
56 58 61 62 60 61 63 60 59 58 59 58 56 54 52 52 61 62 63 63 63 63 61 59 59 54 52 51 50 49 48 48 47 45 44 41 40 39 39 38 38 37 37
49 51 52 54 56 58 60 61 64 64 62 59 57 55 54 57 62 63 63 63 63 62 62 61 59 49 47 48 47 47 45 43 43 43 41 39 39 39 38 37 36 37 36
45 46 48 48 51 54 53 54 55 57 58 61 63 62 63 63 63 63 63 63 63 62 61 60 53 48 46 46 47 42 39 40 40 39 39 39 39 38 37 36 38 35 34
45 46 45 45 46 47 46 48 51 54 55 56 58 60 62 64 64 64 63 63 62 61 58 57 51 46 44 43 44 42 39 37 36 38 37 38 38 36 35 36 36 35 34
37 43 44 43 43 44 43 43 44 48 50 52 54 55 56 57 58 57 56 55 56 59 57 55 52 49 47 45 42 41 36 34 34 36 35 34 35 33 34 37 34 33 31
38 39 42 44 44 44 42 41 42 45 46 47 49 51 52 53 54 55 55 54 51 51 54 56 53 51 48 45 43 39 37 37 35 34 34 31 34 32 34 34 31 30 29
39 39 40 41 43 44 42 40 41 44 44 45 47 48 49 50 52 53 53 52 49 46 47 51 54 52 49 45 43 41 38 33 32 33 34 31 32 31 32 33 29 28 28
37 37 39 39 41 42 41 39 38 43 42 40 42 44 47 48 49 48 49 48 43 39 38 42 45 46 44 43 40 37 34 34 31 30 32 32 30 30 31 31 29 28 27
38 38 38 39 39 39 41 40 38 41 40 40 41 42 42 43 45 45 47 45 43 40 37 39 38 38 39 37 37 39 36 35 31 30 31 29 30 31 28 31 31 30 29

GFSMA_sfc_30mbdewp_261.txt.gz
Dewpoint
60 57 55 53 54 55 55 56 55 56 57 58 58 59 58 59 58 54 51 60 60 62 66 67 69 69 69 68 67 66 67 67 67 67 66 65 63 61 58 56 54 53 52
61 57 55 53 53 53 54 55 55 54 55 55 56 58 58 57 56 54 51 54 56 60 63 66 68 70 70 70 68 67 67 67 67 67 67 65 62 60 57 55 53 51 51
61 59 55 55 54 54 55 55 56 56 55 55 54 54 55 56 54 52 50 50 52 55 60 63 65 68 70 70 70 69 68 67 67 67 66 64 62 59 57 54 52 51 52
61 61 56 56 55 55 54 54 54 53 53 52 52 52 52 53 53 53 51 50 49 50 57 61 63 65 67 67 68 68 69 68 68 67 66 64 62 59 57 54 52 51 51
62 61 58 56 59 54 55 55 54 54 52 51 49 49 50 48 49 48 49 51 52 52 52 56 59 62 64 64 65 67 69 69 68 67 66 64 61 59 57 54 52 51 51
62 62 58 58 58 56 55 54 55 54 52 50 48 46 49 49 49 49 48 48 49 52 55 57 58 60 61 62 61 65 67 69 68 67 66 63 62 59 56 54 52 51 51
63 63 60 59 59 57 56 58 56 55 53 53 50 49 49 51 52 50 49 48 49 50 53 56 58 58 58 59 59 60 65 68 68 67 66 63 62 59 56 54 53 51 51
64 63 62 58 59 58 59 58 58 56 55 54 51 49 46 47 51 56 56 53 52 51 52 55 57 60 60 59 59 58 62 67 68 67 66 64 62 59 57 54 52 51 51
64 64 63 62 59 60 58 60 60 58 54 54 55 50 45 45 47 50 58 58 58 55 57 58 58 60 62 62 62 61 60 62 66 67 67 64 62 60 57 55 52 51 51
63 63 64 63 63 60 59 60 59 59 59 53 54 55 57 56 50 48 53 58 61 60 61 61 60 61 61 62 63 62 61 61 62 65 66 65 63 61 58 55 52 51 50
64 63 64 65 64 63 60 60 59 61 59 57 52 56 58 58 58 56 52 50 58 60 60 63 63 63 62 63 64 65 63 60 61 62 64 64 64 61 58 55 53 52 50
61 64 63 64 65 64 63 62 61 61 61 59 57 54 54 56 57 56 56 57 56 57 58 63 64 63 63 63 62 61 63 62 60 59 60 62 63 62 59 55 53 51 49
61 61 63 63 64 64 64 63 62 62 62 61 60 58 56 55 55 56 56 56 57 59 61 64 64 64 63 62 62 62 63 62 61 60 59 59 60 61 59 56 53 51 49
61 62 62 63 64 64 64 63 63 63 62 62 62 61 58 57 57 58 58 59 60 61 62 62 63 63 62 61 63 62 63 62 60 59 58 57 58 59 57 54 52 50 50
61 62 63 63 63 63 63 64 63 62 62 63 63 63 62 61 61 63 64 64 62 59 59 60 61 63 62 64 64 62 62 61 58 56 55 55 56 55 53 51 50 49 47
61 64 64 63 64 64 64 64 63 63 62 62 63 63 63 63 64 65 66 65 64 62 59 59 59 61 64 62 62 60 60 57 55 54 53 53 53 51 50 49 48 45 44
52 54 58 62 64 64 65 64 64 63 62 62 63 63 64 65 65 66 66 65 64 63 61 59 58 58 59 63 60 58 58 57 55 52 50 50 50 49 48 46 44 43 43
51 51 51 54 57 60 61 62 63 64 63 63 63 64 64 65 64 65 65 64 64 63 60 57 58 58 60 62 63 59 57 54 53 49 48 48 47 46 44 43 42 41 40
44 48 50 50 50 49 52 55 57 59 61 62 62 62 62 63 63 63 63 63 62 62 62 61 60 60 60 58 54 51 50 50 49 47 46 45 44 43 41 40 40 39 37
45 44 45 47 49 49 47 49 50 52 54 56 58 60 62 61 61 61 61 61 60 60 61 61 61 60 55 51 50 48 45 44 43 44 44 43 41 41 40 39 38 37 36
43 45 45 44 46 47 44 43 42 46 50 51 55 56 57 58 58 58 59 60 60 60 61 61 60 54 51 49 50 48 46 41 40 41 40 40 40 39 39 38 37 35 33
42 42 43 44 45 45 43 43 42 43 44 46 45 46 50 56 57 56 55 54 57 58 60 60 60 56 54 52 49 47 42 39 40 40 38 37 38 37 37 36 35 33 31
42 41 41 42 42 44 43 43 42 42 42 43 44 43 42 41 50 49 54 54 53 53 53 56 58 58 57 54 50 46 43 42 41 38 37 32 36 34 34 34 33 31 30
40 41 41 41 41 41 40 40 40 42 42 43 45 45 44 42 43 47 47 46 49 54 54 51 51 53 54 54 52 49 46 39 36 38 35 31 33 31 32 32 31 30 29
40 42 39 39 40 40 40 39 40 41 43 43 46 46 46 43 42 43 46 45 46 48 47 44 42 42 44 47 48 43 40 38 33 33 35 32 31 30 31 31 31 30 29
36 37 37 37 38 37 38 38 40 40 40 42 42 43 44 44 43 41 43 45 44 44 46 45 42 40 41 44 43 46 41 40 33 31 33 31 30 29 27 31 32 33 31